Regional Weather Roundup
Issued by NWS

Home | Current Version | Previous Version | Text Only | Print | Product List | Glossary On
Versions: 1 2 3 4 5 6 7 8 9 10 11 12 13 14 15 16 17 18 19 20 21 22 23 24 25 26 27 28 29 30 31 32 33 34 35 36 37 38 39 40 41 42 43 44 45 46 47 48 49 50
000
ASUS43 KMPX 171601
RWRMN
WEATHER ROUNDUP FOR MINNESOTA
NATIONAL WEATHER SERVICE TWIN CITIES/CHANHASSEN MN
1000 AM CST SUN DEC 17 2017


NOTE: "FAIR" INDICATES FEW OR NO CLOUDS BELOW 12,000 FEET WITH NO
SIGNIFICANT WEATHER AND/OR OBSTRUCTIONS TO VISIBILITY. N/A MEANS
CURRENT SKY AND/OR WEATHER CONDITIONS ARE NOT AVAILABLE.

MNZ060>063-068>070-171700-
   Twin Cities Metro

CITY           SKY/WX    TMP DP  RH WIND       PRES   REMARKS
TWIN CITIES    CLOUDY    24  24 100 E5        30.09F FOG     WCI  18
ST PAUL        CLOUDY    24  24 100 SE3       30.11S FOG
CRYSTAL        CLOUDY    23  18  81 CALM      30.08S HAZE
LAKEVILLE      FOG       21  21 100 E3        30.08S VSB 3/4
EDEN PRAIRIE   CLOUDY    25  21  85 E3        30.08S FOG
SOUTH ST PAUL  CLOUDY    25  24  96 CALM      30.09F FOG
LAKE ELMO      FOG       27  27 100 CALM      30.09F VSB 1/2
$$
MNZ001>005-007-008-013>017-022>024-027-028-171700-
   Northwest Minnesota

CITY           SKY/WX    TMP DP  RH WIND       PRES   REMARKS
BEMIDJI        MOSUNNY   23  22  96 SW3       30.00F
HALLOCK        SUNNY     12  10  92 S7        29.97S WCI   2
ROSEAU         SUNNY     19  16  86 S7        29.96S WCI  10
WARROAD        SUNNY     21  19  93 SW6       29.96R WCI  14
THIEF RVR FALL CLOUDY    19  18  93 S9        30.01S FOG     WCI   9
CROOKSTON      SUNNY     16  14  93 S3        30.03F FOG
FOSSTON        PTSUNNY   23  21  93 SW7       30.02S FOG     WCI  15
DETROIT LAKES  MOSUNNY   27  25  93 CALM      30.03F FOG
MOORHEAD       CLOUDY    27  25  93 CALM      30.05F FOG
PARK RAPIDS    FOG       23  23 100 S5        30.02R VSB 1/4 WCI  17
MAHNOMEN       PTSUNNY   23  22  96 SW6       30.02S WCI  16
$$
MNZ006-009>011-018-025>026-171700-
   North Central Minnesota

CITY           SKY/WX    TMP DP  RH WIND       PRES   REMARKS
BAUDETTE       CLOUDY    25  24  96 S12       29.96S WCI  14
FLAG ISLAND    PTSUNNY   19  18  93 S5        29.94S WCI  13
INTL FALLS     CLOUDY    24  22  91 SW7       29.98F FOG     WCI  16
WASKISH        CLOUDY    25  25 100 SW8       29.99F WCI  16
BIG FORK       CLOUDY    25  23  93 SW3       30.01F FOG
LONGVILLE      CLOUDY    23  23 100 S6        30.03S FOG     WCI  16
GRAND RAPIDS   CLOUDY    21  20  96 S10       30.04F FOG     WCI  10
CRANE LAKE     CLOUDY    21  19  93 S8        30.04S WCI  12
ORR            CLOUDY    21  19  93 S3        30.00R
COOK           CLOUDY    21  21 100 SE5       30.01F WCI  15
WALKER         CLOUDY    23  22  96 CALM      30.01F FOG
$$
MNZ012-019>021-037-171700-
   Northeast Minnesota

CITY           SKY/WX    TMP DP  RH WIND       PRES   REMARKS
DULUTH         FOG       20  20 100 S6        30.06R VSB 1/4 WCI  12
ELY            CLOUDY    19  19 100 SW6       30.02F WCI  11
HIBBING        CLOUDY    20  20 100 S6        30.03F FOG     WCI  12
EVELETH        CLOUDY    20  17  87 S7        30.05S FOG     WCI  11
DULUTH HARBOR  CLOUDY    25  21  86 W6        30.12S WCI  18
TWO HARBORS    CLOUDY    27  21  80 SW6       30.06S HAZE    WCI  20
GRAND MARAIS     N/A     28  23  81 W6        30.08F WCI  22
G MARAIS ARPRT CLOUDY    19  18  93 S7        30.01F FOG     WCI  10
$$
MNZ029>031-032-039>041-046>048-054>057-064-171700-
   West Central Minnesota

CITY           SKY/WX    TMP DP  RH WIND       PRES   REMARKS
FERGUS FALLS   CLOUDY    27  27 100 S8        30.08S FOG     WCI  18
WHEATON        CLOUDY    28  27  93 S6        30.08S FOG     WCI  22
MORRIS         CLOUDY    28  27  93 S7        30.06S FOG     WCI  21
ALEXANDRIA     CLOUDY    27  26  96 S3        30.05F FOG
ELBOW LAKE     FOG       27  27 100 S7        30.06S VSB 3/4 WCI  20
WADENA         CLOUDY    25  25 100 S6        30.04S FOG     WCI  18
GLENWOOD       FOG       25  25 100 SE3       30.06F VSB 1/4
APPLETON       CLOUDY    28  27  93 S3        30.08R FOG
BENSON         CLOUDY    27  27 100 S3        30.10R FOG
ORTONVILLE     CLOUDY    27  27 100 SE6       30.06S FOG     WCI  20
MADISON        CLOUDY    28  28 100 S5        30.09R FOG     WCI  23
WILLMAR        CLOUDY    27  25  93 CALM      30.09R FOG
$$
MNZ033>034-036-042>043-049>051-058-059-171700-
   Central Minnesota

CITY           SKY/WX    TMP DP  RH WIND       PRES   REMARKS
ST CLOUD       CLOUDY    22  18  85 CALM      30.08F
SAUK CENTRE    CLOUDY    24  23  97 SE3       30.07S FOG
PAYNESVILLE    CLOUDY    24  23  93 CALM      30.08S FOG
AITKIN         CLOUDY    21  19  93 S6        30.05F FOG     WCI  14
PINE RIVER     CLOUDY    23  21  93 S7        30.08R FOG     WCI  15
BRAINERD       CLOUDY    24  22  91 S8        30.07F FOG     WCI  15
STAPLES        CLOUDY    25  25 100 S7        30.06R FOG     WCI  17
LONG PRAIRIE   FOG       25  23  93 SE3       30.06F VSB 1
LITTLE FALLS   CLOUDY    23  19  86 CALM      30.08F
LITCHFIELD     CLOUDY    25  21  86 CALM      30.08R
BUFFALO        CLOUDY    21  18  86 CALM      30.09S
MAPLE LAKE     CLOUDY    23  21  91 CALM      30.09S
HUTCHINSON     PTSUNNY   24  20  84 NE3       30.08S
$$
MNZ037-044-045-052-053-171700-
   East Central Minnesota

CITY           SKY/WX    TMP DP  RH WIND       PRES   REMARKS
PRINCETON      CLOUDY    23  19  86 CALM      30.08S
MORA           CLOUDY    21  18  86 CALM      30.10F
CAMBRIDGE      CLOUDY    25  19  80 CALM      30.09S
RUSH CITY      CLOUDY    20  19  94 CALM      30.10R FOG
MOOSE LAKE     CLOUDY    23  19  86 CALM      30.08S
HINCKLEY       FAIR      23  19  86 CALM      30.09F
CLOQUET        CLOUDY    21  18  86 SW6       30.07R FOG     WCI  14
MCGREGOR       CLOUDY    23  23 100 S5        30.07S WCI  17
$$
MNZ071>073-080-081-089-090-097-098-171700-
   Southwest Minnesota

CITY           SKY/WX    TMP DP  RH WIND       PRES   REMARKS
MONTEVIDEO     CLOUDY    27  27 100 CALM      30.09R FOG
GRANITE FALLS  CLOUDY    27  25  91 CALM      30.09R FOG
CANBY          CLOUDY    29  28  99 CALM      30.09R FOG
MARSHALL       CLOUDY    26  24  92 CALM      30.07R FOG
REDWOOD FALLS  CLOUDY    27  23  85 NE3       30.08R FOG
OLIVIA         CLOUDY    27  23  86 CALM      30.07R FOG
PIPESTONE      CLOUDY    27  25  93 CALM      30.03S FOG
WINDOM           N/A     27  16  63 NE3       30.05S HAZE
WORTHINGTON    FOG       25  25 100 N8        30.04S VSB 3/4 WCI  16
JACKSON        CLOUDY    27  25  93 N7        30.04S WCI  19
SLAYTON        CLOUDY    25  25  98 N5        30.05R FOG     WCI  19
$$
MNZ065>067-074>077-082>085-091>093-171700-
   South Central Minnesota

CITY           SKY/WX    TMP DP  RH WIND       PRES   REMARKS
MANKATO        CLOUDY    23  20  88 NE5       30.09R WCI  17
NEW ULM        CLOUDY    25  19  80 CALM      30.07F
ST JAMES       CLOUDY    25  21  86 CALM      30.07F
FAIRMONT       CLOUDY    26  23  88 N8        30.05F WCI  18
GLENCOE        CLOUDY    25  25  99 CALM      30.07S
FARIBAULT      CLOUDY    25  23  93 CALM      30.07S FOG
OWATONNA       CLOUDY    25  25 100 E3        30.05F FOG
WASECA         CLOUDY    23  23 100 E5        30.07F FOG     WCI  17
$$
MNZ078>079-086>088-094>096-171700-
   Southeast Minnesota

CITY           SKY/WX    TMP DP  RH WIND       PRES   REMARKS
ROCHESTER      FOG       26  25  96 E8        30.03F VSB 1/4 WCI  18
RED WING       CLOUDY    27  23  86 SE6       30.09S FOG     WCI  20
STANTON        CLOUDY    26  24  92 CALM      30.08R FOG
DODGE CENTER   FOG       25  23  93 E5        30.04F VSB 1/4 WCI  19
WINONA         CLOUDY    30  28  93 SE5       30.09F WCI  25
AUSTIN         CLOUDY    27  25  93 E5        30.03F FOG     WCI  21
PRESTON        MIX PCPN  26  25  95 E6        30.04F WCI  19
$$
ABBREVIATIONS USED IN REMARKS
   TC - TEMPERATURES IN CELSIUS
  WCI - WIND CHILL INDEX
   HX - HEAT INDEX
  VSB - VISIBILITY
$$




USA.gov is the U.S. government's official web portal to all federal, state and local government web resources and services.